Tracking 20628 objects as of 7-Apr-2020
HD Live streaming from Space Station
objects crossing your sky now

SL-14 DEB

Track SL-14 DEB now!
10-day predictions


NORAD ID: 39972
Int'l Code: 1987-068CY
Perigee: 929.4 km
Apogee: 956.0 km
Inclination: 82.5 °
Period: 103.7 minutes
Semi major axis: 7313 km
RCS: 0.0139 m2 (small)
Launch date: August 18, 1987
Source: Commonwealth of Independent States (former USSR) (CIS)
Launch site: PLESETSK MISSILE AND SPACE COMPLEX (PKMTR)

Note: This is SATELLITE DEBRIS
aabbcc
Your satellite tracking list
Your tracking list is empty




NASA's NSSDC Master Catalog

Two Line Element Set (TLE):
1 39972U 87068CY  20095.66376983  .00000138  00000-0  10327-3 0  9991
2 39972  82.4951 227.6300 0018195 341.1213  18.9273 13.88016602862315
Source of the keplerian elements: AFSPC